www.pogodaiklimat.ru

Погода и климат >> Архив погоды >> Россия >> Новосибирская область >> Барабинск


АРХИВ ПОГОДЫ в Барабинске

Время (UTC), дата Ветер
(напр.,м/с)
 
Видим.   Явления Облачность Т
(С)
Тd
(С)
f
(%)
Тe
(С)
Тes
(С)
Комфортность P
(гПа)
Po
(гПа)
Тmin
(С)
Tmax
(С)
R
(мм)
R24
(мм)
S
(см)
00 18.08 СЗ 1 4000 м дымка ясно +12.2 +11.6 96 +12 +12 1015.2 1000.8 +11.9
03 18.08 С 1 20 км 3/0
[Ci fib]
+21.1 +14.3 65 +24 +29 комфорт 1015.4 1001.4
06 18.08 С 2 20 км 9/4 600 м
[Cu med, cong Ci sp]
+25.2 +12.9 46 +27 +33 жарко 1014.9 1001.1
09 18.08 З 1 20 км 8/5 600 м
[Cu med, cong Ci fib]
+27.2 +9.9 34 +28 +32 жарко 1014.5 1000.8
12 18.08 З 2 20 км 8/4 600 м
[Cu med, cong Ci fib]
+25.7 +12.2 43 +27 +28 жарко 1014.9 1001.1 +28.0
15 18.08 З 1 20 км 3/0
[Ci fib]
+18.3 +13.3 73 +20 +20 1016.0 1001.9
18 18.08 З 2 20 км 4/0
[Ac trans]
+17.0 +14.1 83 +17 +17 1016.5 1002.3
21 18.08 З 1 20 км 8/0
[Ac trans]
+17.3 +15.2 87 +18 +18 1016.4 1002.2
00 19.08 СЗ 2 20 км 10/0
[Ac As]
+16.2 +14.6 90 +16 +16 1017.4 1003.2 +15.4
03 19.08 СЗ 4 20 км 10/10 600 м
[Sc]
+17.6 +14.1 80 +17 +17 1018.1 1003.9
06 19.08 СЗ 4 20 км 10/10 600 м
[Cb calv]
+18.4 +12.8 70 +19 +19 1018.5 1004.3
09 19.08 С 4 20 км 8/8 600 м
[Cu med, cong]
+22.7 +8.7 41 +24 +25 комфорт 1018.1 1004.2
12 19.08 СЗ 5 20 км 6/6 600 м
[Cu med, cong]
+21.8 +8.2 42 +23 +23 комфорт 1017.9 1003.9 +23.1
15 19.08 СЗ 2 20 км 3/3 600 м
[Sc]
+16.1 +8.1 59 +16 +16 1019.6 1005.3
18 19.08 З 1 20 км ясно +10.3 +7.6 83 +10 +10 1020.1 1005.5
21 19.08 ЮЗ 2 20 км ясно +9.7 +8.5 92 +8 +8 1019.3 1004.7
00 20.08 З 2 20 км 3/0
[Ac trans]
+8.8 +8.0 95 +7 +7 1019.2 1004.5 +8.5
03 20.08 ЮЗ 3 20 км 9/0
[Ac trans Ci]
+13.9 +8.6 70 +13 +15 1018.3 1003.9
06 20.08 З 6-12
{12}
20 км 9/6 600 м
[Cu med, cong Ac trans]
+19.3 +6.1 42 +19 +20 1016.6 1002.6
09 20.08 ЮЗ 2
{12}
20 км {ливн. осадки} 9/9 600 м
[Cb calv]
+14.3 +9.5 73 +14 +15 1016.4 1002.1
12 20.08 З 3
{11}
20 км {ливн. осадки} 9/9 600 м
[Cb calv]
+15.5 +7.6 59 +15 +15 1016.2 1001.9 +19.6 0.0
15 20.08 З 2 20 км 8/8 600 м
[Cb calv]
+12.8 +8.7 76 +12 +12 1016.2 1001.8
18 20.08 З 2 20 км 4/0
[Ac trans]
+10.8 +8.8 87 +9 +9 1015.3 1000.8
21 20.08 З 2 20 км 9/9 600 м
[Sc]
+11.3 +10.2 93 +10 +10 1014.7 1000.3
00 21.08 СЗ 3 20 км 10/10 600 м
[Sc]
+11.3 +9.1 86 +9 +9 1014.5 1000.1 +10.7
03 21.08 СЗ 2 20 км 10/10 600 м
[Cb calv]
+12.8 +9.7 81 +12 +12 1014.3 999.9
06 21.08 СЗ 2 20 км 9/9 600 м
[Cb calv]
+16.5 +8.8 60 +17 +18 1013.4 999.2
09 21.08 С 3 20 км 9/9 600 м
[Cb calv]
+15.7 +9.7 67 +15 +16 1013.2 999.0
12 21.08 С 4 20 км 8/8 600 м
[Cb calv]
+17.8 +7.8 52 +18 +18 1012.7 998.6 +19.0
15 21.08 З 1 20 км 8/8 600 м
[Cb calv]
+13.8 +9.8 77 +14 +14 1013.1 998.8
18 21.08 С 1 20 км 3/0
[Ci fib]
+12.4 +11.1 92 +12 +12 1012.4 998.0
21 21.08 С 1 20 км 9/0
[Ac trans]
+10.5 +9.4 93 +10 +10 1011.7 997.3
00 22.08 СЗ 2 4000 м дымка 3/0
[Ac trans]
+9.2 +8.6 96 +7 +7 1012.0 997.5 +8.0
03 22.08 СВ 2 10 км в посл. час туман ясно +13.4 +12.2 92 +13 +17 1011.8 997.5
06 22.08 С 4 20 км {туман} 8/8 600 м
[Cu med, cong]
+18.5 +9.5 56 +19 +20 1011.2 997.1
09 22.08 С 4 20 км 6/6 600 м
[Cu med, cong]
+20.2 +6.9 42 +21 +23 комфорт 1010.3 996.3
12 22.08 С 4
{11}
20 км 9/9 600 м
[Cb calv]
+18.2 +8.3 52 +18 +18 1011.0 996.9 +21.0
15 22.08 СЗ 2
{11}
20 км {ливн. осадки} 3/3 600 м
[Cu med, cong]
+12.2 +11.0 92 +11 +11 1011.9 997.5
18 22.08 СЗ 2 20 км {ливн. осадки} ясно +11.4 +10.7 95 +10 +10 1011.6 997.2
21 22.08 З 2 20 км ясно +10.4 +9.7 95 +9 +9 1012.0 997.6
00 23.08 СЗ 3 200 м туман ясно +10.5 +10.0 97 +8 +8 1013.0 998.6 +9.7 1
03 23.08 З 2 1000 м в посл. час туман 10/0
[Ac und]
+12.4 +11.9 97 +11 +13 1014.3 999.9
06 23.08 З 3 20 км {туман} 3/3 600 м
[Cu hum]
+18.8 +12.7 68 +20 +26 1014.2 1000.2
09 23.08 СЗ 4 20 км 6/6 600 м
[Cu med, cong]
+22.9 +10.5 45 +25 +27 комфорт 1014.2 1000.3
12 23.08 З 1
{11}
20 км в посл. час ливневой дождь 9/9 600 м
[Cb calv]
+18.5 +13.5 73 +20 +20 1015.0 1000.9 +23.4 0.4
15 23.08 З 2 20 км 3/0
[Ci fib]
+15.7 +11.8 78 +16 +16 1015.7 1001.5
18 23.08 ЮЗ 2 20 км ясно +12.9 +11.5 91 +12 +12 1016.0 1001.6
21 23.08 ЮЗ 2 20 км ясно +11.0 +10.0 94 +10 +10 1015.9 1001.4
00 24.08 Ю 2 20 км 4/0
[Ac trans]
+10.9 +9.0 88 +10 +10 1015.7 1001.2 +9.7
03 24.08 ЮЗ 3 20 км 9/0
[Ac trans]
+18.6 +12.6 68 +19 +21 1015.0 1000.9
06 24.08 ЮЗ 4 20 км 8/0
[Ac trans Ci fib]
+23.7 +11.7 47 +25 +30 комфорт 1013.9 1000.1
09 24.08 ЮЗ 6-11
{11}
20 км 8/3 600 м
[Cu med, cong Ac As]
+26.2 +8.9 34 +27 +28 жарко 1012.1 998.4
12 24.08 ЮЗ 3
{12}
20 км 9/9 600 м
[Cu med, cong]
+26.5 +9.3 34 +27 +27 жарко 1011.0 997.3 +27.0
15 24.08 З 2 20 км 4/0
[Ci fib]
+19.2 +13.5 70 +21 +21 комфорт 1012.7 998.7
18 24.08 ЮЗ 2 20 км ясно +14.4 +10.3 76 +14 +14 1013.6 999.3
21 24.08 З 2 20 км 9/0
[Ac trans]
+12.6 +10.4 86 +12 +12 1014.4 1000.0

 

Местоположение метеостанции Барабинск (Новосибирская область, Россия): широта 55.33 долгота 78.37 высота над уровнем моря 120 м.

В архиве по умолчанию представлена погода в Барабинске за последнюю неделю. Архивные данные за месяц целиком и за предыдущие месяцы, начиная с января 2011 года, Вы можете получить, выбрав интересующий диапазон дат из раскрывающегося списка и нажав кнопку "Ввод!".


*Определитесь, кто Вы:
робот инопланетянин человек

Внимание! Время в таблицах - всемирное. Для получения местного времени необходимо прибавить поправку, которая равна 7 ч.

Смотрите также архив погоды в соседних городах и на ближайших метеорологических станциях:

Погода в Квашнино (Новосибирская область, Россия) (49 км)
Погода в Здвинске (Новосибирская область, Россия) (70 км)
Погода в Убинском (Новосибирская область, Россия) (80 км)
Погода в Чанах (Новосибирская область, Россия) (103 км)
Погода в Венгерово (Новосибирская область, Россия) (111 км)
Погода в Северном (Новосибирская область, Россия) (111 км)
Погода в Крещенке (Новосибирская область, Россия) (120 км)
Погода в Каргате (Новосибирская область, Россия) (122 км)
Погода в Довольном (Новосибирская область, Россия) (123 км)
Погода в Купино (Новосибирская область, Россия) (125 км)

Пояснения к столбцам:

Ветер - указаны скорость ветра в м/с - средняя за 10 мин, порывы в срок и между сроками (в фигурных скобках) и направление, откуда дует ветер: С - северный, СВ - северо-восточный, В - восточный, ЮВ - юго-восточный, Ю - южный, ЮЗ - юго-западный, З - западный, СЗ - северо-западный.
Видимость - горизонтальная дальность видимости в метрах или километрах. При видимости от 1 до 10 км при отсутствии осадков обычно наблюдается дымка, при ухудшении видимости до 1 км и менее - туман. В сухую погоду видимость может ухудшаться дымом, пылью или мглою.
Явления - указаны атмосферные явления, наблюдавшиеся в срок или в последний час перед сроком; фигурными скобками обозначены явления, наблюдавшиеся между сроками (за 1-3 часа до срока); квадратными скобками обозначены град или гололедные отложения с указанием их диаметра в мм.
Облачность - указаны через наклонную черту общая и нижняя облачность в баллах и высота нижней границы облаков в метрах; квадратными скобками обозначены формы облаков: Ci - перистые, Cs - перисто-слоистые, Cc - перисто-кучевые, Ac - высококучевые, As - высокослоистые, Sc - слоисто-кучевые, Ns - слоисто-дождевые, Cu - кучевые, Cb - кучево-дождевые. Подробнее классификацию облаков см. в Атласе облаков (PDF).
T - Температура воздуха - температура, измеренная на высоте 2 м над землей.
Td - Температура точки росы - температура, при понижении до которой содержащийся в воздухе водяной пар достигнет насыщения.
f - Относительная влажность воздуха - влажноcть воздуха, измеренная на высоте 2 м над землей.
Te - Эффективная температура - температура, которую ощущает одетый по сезону человек в тени. Характеристика душности погоды. При расчете учитывается влияние влажности воздуха и скорости ветра на теплоощущения человека.
Tes - Эффективная температура на солнце - температура, которую ощущает человек, с поправкой на солнечный нагрев. Характеристика знойности погоды. Зависит от высоты солнца над горизонтом, облачности и скорости ветра. Ночью, в пасмурную погоду, а также при ветре 12 м/с и более поправка равна нулю.
P - Атмосферное давление - приведенное к уровню моря атмосферное давление.
Po - Атмосферное давление - измеренное на уровне метеостанции атмосферное давление.
Tmin - Минимальная температура - минимум температуры воздуха на высоте 2 м над землей.
Tmax - Максимальная температура - максимум температуры воздуха на высоте 2 м над землей.
R - Количество осадков - Количество выпавших осадков за период времени, мм. При наведении курсора мыши на число - период времени, за который выпало указанное количество осадков.
R24 - Количество осадков - Количество выпавших осадков за 24 часа, мм.
S - Снежный покров - Высота снежного покрова, см. При наведении курсора мыши на число - состояние снежного покрова и степень покрытия местности в баллах.